Location: Unspecified
(0.0000°N, 0.0000°E)
Time: 05:39:08
(UTC+00:00)

Tianhe-1 - Pass Details

Date: 11 May 2021
Orbit: 360 x 384 km, 41.5° (Epoch: 18 May)

Event Time Altitude Azimuth Distance (km) Brightness Sun altitude
Rises 19:03:14 0° 248° (WSW) 2,209 5.7 -15.9°
Reaches altitude 10° 19:05:34 10° 264° (W) 1,364 4.9 -16.4°
Maximum altitude 19:08:00 21° 317° (NW) 896 3.7 -17.0°
Drops below altitude 10° 19:10:26 10° 9° (N) 1,371 4.0 -17.6°
Enters shadow 19:12:47 - 26° (NNE) 2,213 4.9 -18.1°
